Preview of NWS' New Version of Forecast
This preview is not operational and should not be used for support decisions.

Regional Weather Roundup (RWR)

Issued by National Weather Service (NWS)

                            
000
ASUS45 KBOI 230110
RWRID 

IDAHO REGIONAL WEATHER ROUNDUP
NATIONAL WEATHER SERVICE BOISE ID
700 PM MDT FRI MAR 22 2019

NOTE: "FAIR" INDICATES FEW OR NO CLOUDS BELOW 12000 FEET
WITH NO SIGNIFICANT WEATHER AND/OR OBSTRUCTIONS TO VISIBILITY

IDZ012-014-230200-
SOUTHWEST IDAHO

  
CITY           SKY/WX    TMP DP  RH WIND       PRES   REMARKS
BOISE          CLOUDY    56  39  53 W5        29.97R                  
CALDWELL       FAIR      56  41  57 E8        29.94S                  
MOUNTAIN HOME  CLOUDY    52  48  87 NE14      29.97R                  
$$

IDZ016-017-230200-
SOUTHCENTRAL IDAHO

  
CITY           SKY/WX    TMP DP  RH WIND       PRES   REMARKS
BURLEY         MOCLDY    49  38  65 SW10      29.99R                  
JEROME         CLOUDY    53  34  48 W12       29.99R                  
TWIN FALLS     LGT RAIN  47  41  80 S8        30.00R                  
$$

IDZ019>023-230200-
SOUTHEAST IDAHO

  
CITY           SKY/WX    TMP DP  RH WIND       PRES   REMARKS
IDAHO FALLS    LGT RAIN  40  37  89 S7        30.03R                  
POCATELLO      MOCLDY    42  38  85 S5        30.02S                  
REXBURG        LGT RAIN  41  37  86 SW5       30.01S                  
$$

IDZ006-010-011-018-031-032-230200-
CENTRAL IDAHO MOUNTAINS

  
CITY           SKY/WX    TMP DP  RH WIND       PRES   REMARKS
MCCALL         CLOUDY    43  30  60 CALM      29.96R                  
HAILEY         CLOUDY    41  32  70 NW6       30.01R                  
STANLEY          N/A     42  25  50 NW8       29.99                   
SALMON         FAIR      50  30  46 S3        29.91R                  
CHALLIS        CLOUDY    46  35  65 SE13G22   29.95R                  
$$

IDZ002-004-006-007-026-230200-
NORTHERN IDAHO

  
CITY           SKY/WX    TMP DP  RH WIND       PRES   REMARKS
LEWISTON       FAIR      57  41  55 SE7       29.91S                  
LOWELL           N/A     45  36  70 N3        29.91R                  
COEUR D'ALENE  FAIR      53  39  59 S7        29.92R                  
MULLAN PASS    FAIR      40  28  62 NW7       29.92R                  
$$